Little Rock AFB, AR

3:56 AM CDT on March 25, 2017 (GMT -0500)
Little Rock Air Force Base

Weather History for KLRF - April, 2013

Change the Weather History Date:

Friday, April 26, 2013

  Actual Average Record
Temperature  
Mean Temperature 56 °F -  
Max Temperature 64 °F 74 °F 87 °F (1987)
Min Temperature 50 °F 52 °F 40 °F (1976)
Degree Days  
Heating Degree Days 8    
Growing Degree Days 6 (Base 50)    
Moisture  
Dew Point 49 °F    
Average Humidity 76    
Maximum Humidity 92    
Minimum Humidity 48    
Precipitation  
Precipitation 0.15 in - - ()
Sea Level Pressure  
Sea Level Pressure 30.26 in    
Wind  
Wind Speed 5 mph (ENE)    
Max Wind Speed 12 mph    
Max Gust Speed -    
Visibility 9 miles    
Events Rain , Thunderstorm    
Averages and records for this station are not official NWS values.
T = Trace of Precipitation, MM = Missing Value Source: NWS Daily Summary

Daily Weather History Graph

Daily Weather History Graph

Search for Another Location

Airport or City:

Trip Planner

Search our weather history database for the weather conditions in past years. The results will help you decide how hot, cold, wet, or windy it might be!

Date:

Astronomy

Apr. 26, 2013 Rise Set
Actual Time 6:23 AM CDT 7:50 PM CDT
Civil Twilight 5:56 AM CDT 8:16 PM CDT
Nautical Twilight 5:24 AM CDT 8:48 PM CDT
Astronomical Twilight 4:50 AM CDT 9:22 PM CDT
Moon 9:10 PM CDT (4/26) 6:53 AM CDT (4/26)
Length of Visible Light 14h 20m
Length of Day
13h 27m
Full, 99% of the Moon is Illuminated
Apr 26
Full
May 2
Last Quarter
May 9
New
May 17
First Quarter
May 24
Full

Hourly Weather History & Observations

Time (CDT) Temp. Dew Point Humidity Pressure Visibility Wind Dir Wind Speed Gust Speed Precip Events Conditions
12:58 AM 51.1 °F 47.7 °F 88% 30.29 in 10.0 mi Calm Calm - N/A   Clear
1:58 AM 50.0 °F 47.8 °F 92% 30.28 in 10.0 mi NNE 1.2 mph - N/A   Clear
2:58 AM 50.4 °F 47.5 °F 90% 30.29 in 10.0 mi Calm Calm - N/A   Mostly Cloudy
3:58 AM 50.7 °F 47.3 °F 88% 30.27 in 10.0 mi East 1.2 mph - N/A   Mostly Cloudy
4:58 AM 53.1 °F 47.5 °F 81% 30.27 in 10.0 mi East 1.2 mph - N/A   Overcast
5:58 AM 53.4 °F 46.2 °F 77% 30.26 in 10.0 mi NE 2.3 mph - N/A   Mostly Cloudy
6:58 AM 53.6 °F 46.8 °F 78% 30.27 in 10.0 mi East 2.3 mph - N/A   Overcast
7:58 AM 55.4 °F 47.5 °F 75% 30.31 in 10.0 mi ENE 4.6 mph - N/A   Mostly Cloudy
8:58 AM 57.7 °F 46.8 °F 67% 30.33 in 10.0 mi ENE 6.9 mph - N/A   Overcast
9:58 AM 58.8 °F 45.7 °F 62% 30.31 in 10.0 mi East 10.4 mph - N/A   Overcast
10:58 AM 63.9 °F 43.5 °F 48% 30.28 in 10.0 mi ESE 10.4 mph - N/A   Mostly Cloudy
11:58 AM 61.5 °F 42.4 °F 50% 30.29 in 10.0 mi East 8.1 mph - N/A   Overcast
12:21 PM 60.8 °F 44.6 °F 55% 30.36 in 10.0 mi WNW 11.5 mph - N/A Rain , Thunderstorm Light Rain
12:31 PM 60.8 °F 44.6 °F 55% 30.37 in 9.0 mi WNW 5.8 mph - N/A Rain , Thunderstorm Light Thunderstorms and Rain
12:34 PM 59.0 °F 44.6 °F 59% 30.36 in 3.0 mi Variable 3.5 mph - N/A Rain Light Rain
12:39 PM 59.0 °F 46.4 °F 63% 30.32 in 1.8 mi ENE 10.4 mph - N/A Rain , Thunderstorm Heavy Thunderstorms and Rain
12:44 PM 57.2 °F 50.0 °F 77% 30.30 in 2.0 mi ENE 10.4 mph - N/A Rain , Thunderstorm Thunderstorms and Rain
12:49 PM 57.2 °F 51.8 °F 82% 30.28 in 3.0 mi ENE 10.4 mph - N/A Rain , Thunderstorm Light Thunderstorms and Rain
12:58 PM 57.9 °F 51.4 °F 79% 30.30 in 9.0 mi NE 5.8 mph - 0.15 in Rain , Thunderstorm Light Thunderstorms and Rain
12:59 PM 59.0 °F 51.8 °F 77% 30.29 in 10.0 mi ENE 6.9 mph - N/A Rain , Thunderstorm Light Rain
1:03 PM 59.0 °F 50.0 °F 72% 30.29 in 10.0 mi ENE 9.2 mph - N/A Thunderstorm Overcast
1:58 PM 59.0 °F 51.4 °F 76% 30.30 in 10.0 mi ENE 8.1 mph - 0.00 in   Overcast
2:58 PM 58.5 °F 49.8 °F 73% 30.27 in 10.0 mi East 10.4 mph - N/A   Overcast
3:31 PM 59.0 °F 50.0 °F 72% 30.26 in 10.0 mi East 5.8 mph - N/A Rain Light Rain
3:41 PM 59.0 °F 50.0 °F 72% 30.25 in 10.0 mi ESE 5.8 mph - N/A   Overcast
3:54 PM 59.0 °F 50.0 °F 72% 30.26 in 10.0 mi ESE 8.1 mph - N/A Rain Light Rain
3:58 PM 58.6 °F 49.3 °F 71% 30.27 in 10.0 mi East 6.9 mph - 0.00 in Rain Light Rain
4:04 PM 59.0 °F 48.2 °F 67% 30.25 in 10.0 mi East 11.5 mph - N/A   Overcast
4:10 PM 57.2 °F 48.2 °F 72% 30.24 in 10.0 mi East 10.4 mph - N/A Rain Light Rain
4:25 PM 57.2 °F 50.0 °F 77% 30.23 in 10.0 mi ENE 9.2 mph - N/A   Overcast
4:54 PM 57.2 °F 50.0 °F 77% 30.23 in 10.0 mi ENE 4.6 mph - N/A   Light Drizzle
4:58 PM 57.9 °F 50.0 °F 75% 30.24 in 10.0 mi East 5.8 mph - 0.00 in Rain Light Rain
5:17 PM 57.2 °F 51.8 °F 82% 30.22 in 10.0 mi ENE 8.1 mph - N/A   Overcast
5:58 PM 57.2 °F 52.0 °F 83% 30.22 in 10.0 mi ENE 8.1 mph - 0.00 in   Overcast
6:58 PM 57.6 °F 51.6 °F 81% 30.21 in 10.0 mi ENE 5.8 mph - N/A   Overcast
6:59 PM 57.2 °F 51.8 °F 82% 30.19 in 10.0 mi ENE 5.8 mph - N/A   Light Drizzle
7:08 PM 57.2 °F 51.8 °F 82% 30.19 in 10.0 mi East 6.9 mph - N/A   Overcast
7:21 PM 57.2 °F 51.8 °F 82% 30.19 in 10.0 mi ESE 3.5 mph - N/A   Light Drizzle
7:31 PM 57.2 °F 51.8 °F 82% 30.19 in 10.0 mi ESE 4.6 mph - N/A   Overcast
7:58 PM 56.7 °F 52.5 °F 86% 30.20 in 10.0 mi NE 4.6 mph - 0.00 in   Overcast
8:58 PM 56.7 °F 52.7 °F 87% 30.20 in 10.0 mi ENE 5.8 mph - N/A   Overcast
9:58 PM 56.7 °F 51.8 °F 84% 30.20 in 10.0 mi ENE 11.5 mph - N/A   Mostly Cloudy
10:58 PM 56.7 °F 51.1 °F 82% 30.19 in 10.0 mi ENE 8.1 mph - N/A   Mostly Cloudy
11:47 PM 57.2 °F 51.8 °F 82% 30.17 in 10.0 mi ENE 8.1 mph - N/A   Light Drizzle
11:58 PM 56.3 °F 51.6 °F 84% 30.19 in 10.0 mi ENE 5.8 mph - 0.00 in Rain Light Rain